Location: Seasalter
(51.3333°N, 1.0167°E)
Time: 03:47:26
(UTC+00:00)

NOSS 2-2 (D) - Pass Details

Date: 26 September 2023
Orbit: 414 x 1757 km, 63.3° (Epoch: 29 October)

Event Time Altitude Azimuth Distance (km) Brightness Sun altitude
Exits shadow 03:12:48 47° 312° (NW) 916 4.2 -23.9°
Maximum altitude 03:14:12 86° 226° (SW) 747 3.8 -23.7°
Drops below altitude 10° 03:20:20 10° 139° (SE) 2,710 6.9 -22.9°
Sets 03:23:24 0° 139° (SE) 3,893 7.8 -22.5°
